Location: Complexul Astronomic Baia Mare
(47.6577°N, 23.5639°E)
Time: 13:34:58
(UTC+03:00)

ISS - Pass Details

Date: 02 June 2017
Orbit: 401 x 408 km, 51.6° (Epoch: 24 June)

Event Time Altitude Azimuth Distance (km) Brightness Sun altitude
Rises 23:05:43 0° 291° (WNW) 2,340 1.0 -13.5°
Reaches altitude 10° 23:07:50 10° 296° (WNW) 1,477 -0.1 -13.7°
Maximum altitude 23:11:05 52° 15° (NNE) 514 -3.1 -14.0°
Enters shadow 23:13:53 13° 91° (E) 1,298 -1.6 -14.2°
